User: anonymous   Login
Location: Scultetus-Sternwarte G�rlitz
(51.1356°N, 14.9514°E)
Time: 18:00:26
(UTC+02:00)
Language:

Iridium 3 - Orbit

View from above orbital plane
View from above orbital plane
View from above satellite
View from above satellite

Ground track
Ground track

The orbit data is extracted from the following two-line orbital elements,

1 25431U 98048A   14298.11343319  .00000315  00000-0  10549-3 0  9376
2 25431 086.3931 299.4952 0002052 105.3664 320.2647 14.34217553847144
Epoch (UTC): 25 October 2014 02:43:20
Eccentricity: 0.0002052
inclination: 86.3931°
perigee height: 776 km
apogee height: 779 km
right ascension of ascending node: 299.4952°
argument of perigee: 105.3664°
revolutions per day: 14.34217553
mean anomaly at epoch: 320.2647°
orbit number at epoch: 84714

The dashed part of the orbit path shows where the satellite is in the earth's shadow,  

DLR